Regional Weather Roundup
Issued by NWS Jackson, KY

Home | Current Version | Previous Version | Graphics & Text | Print | Product List | Glossary On
Versions: 1 2 3 4 5 6 7 8 9 10 11 12 13 14 15 16 17 18 19 20 21 22 23 24 25 26 27
000
ASUS43 KJKL 240110
RWRJKL

EAST KENTUCKY HOURLY WEATHER ROUNDUP
NATIONAL WEATHER SERVICE JACKSON KY
800 PM EST THU FEB 23 2017

NOTE: "FAIR" INDICATES FEW OR NO CLOUDS BELOW 12,000 FEET WITH
NO SIGNIFICANT WEATHER AND/OR OBSTRUCTIONS TO VISIBILITY.

* THESE REPORTS ARE NOT UNDER NWS QUALITY CONTROL AND MAY NOT
  REPORT WEATHER SUCH AS PRECIPITATION AND FOG.

KYZ079-080-083-085-087-088-110-112-115-119-120-240200
...EASTERN KENTUCKY...

CITY           SKY/WX    TMP DP  RH WIND       PRES   REMARKS
JACKSON        CLEAR     64  52  64 SE6       29.83S
LONDON         PTCLDY    62  51  67 CALM      29.81S
SOMERSET*      PTCLDY    64  50  59 CALM      29.81R
MONTICELLO*    CLEAR     59  52  77 NE7       29.81S
WILLIAMSBURG*  PTCLDY    64  54  68 SE6       29.82S
MIDDLESBORO*   PTCLDY    58  53  82 CALM      29.84S
HARLAN APT*    CLEAR     59  52  77 CALM      29.84F
PIKE CO APT*     N/A     63  55  75 E3        29.85F
BIG SANDY APT* CLEAR     60  55  85 SE5       29.84F
MOREHEAD APT*  CLEAR     63  55  77 CALM      29.83S
ASHLAND*       CLEAR     57  54  88 CALM      29.80
$$

KYZ035-036-041-042-044-050-067-078-099-240200
...CENTRAL KENTUCKY...

CITY           SKY/WX    TMP DP  RH WIND       PRES   REMARKS
MT STERLING*   CLEAR     63  55  77 SE5       29.82S
FLEMING/MASON* CLOUDY    61  56  83 SE5       29.81F
DANVILLE*      MOCLDY    59  54  82 SE3       29.79F
LEXINGTON      PTCLDY    64  54  69 SE7       29.79S
FRANKFORT      CLOUDY    62  54  74 E6        29.76F
LOUISVILLE     MOCLDY    67  54  63 SE9       29.74S
LEBANON*         N/A     64  55  72 E5        29.77S
GLASGOW*       CLEAR     65  52  62 S3        29.76S
BOWLING GREEN  PTCLDY    67  54  63 SE7       29.74S
$$

KYZ091>093-OHZ055-061-077-WVZ005-015-034-035-042-240200
...SOUTHERN OHIO/WEST VIRGINIA...

CITY           SKY/WX    TMP DP  RH WIND       PRES   REMARKS
COVINGTON      CLOUDY    63  56  78 SE7       29.77S
COLUMBUS       CLOUDY    61  57  87 S3        29.79S
DAYTON         CLOUDY    62  54  74 S5        29.77F
WILMINGTON     CLOUDY    62  56  80 S8        29.78F
HUNTINGTON     CLEAR     62  54  74 SE5       29.82F
CHARLESTON     PTCLDY    60  54  80 CALM      29.83F
PINEVILLE*     CLEAR     52  48  87 MISG      29.92F
BECKLEY        PTCLDY    57  51  80 SE8       29.89F
BLUEFIELD      PTCLDY    59  48  67 S6        29.92F
LOGAN CO APT*    N/A     61  54  77 CALM      29.86F
$$

VAZ002-007-008-TNZ017-027-036-066-071-240200
...SOUTHWEST VIRGINIA/EAST TENNESSEE...

CITY           SKY/WX    TMP DP  RH WIND       PRES   REMARKS
WISE*          PTCLDY    61  48  63 CALM      29.90F
JONESVILLE*    CLOUDY    59  54  82 CALM      29.86F
ABINGDON*      PTCLDY    64  51  61 S6        29.89S
BRISTOL        CLOUDY    63  52  67 CALM      29.87R
MORRISTOWN*    CLOUDY    64  54  68 CALM      29.83F
SEVIERVILLE*   CLEAR     63  52  67 CALM      29.83S
LAFOLLETTE*    PTCLDY    57  54  88 CALM      29.86S
OAK RIDGE      PTCLDY    62  55  77 CALM      29.83F
CROSSVILLE     PTCLDY    62  51  67 S5        29.84R
NASHVILLE      PTCLDY    67  54  63 S9        29.75F
$$

...KEY TO REMARKS...
VSB - VISIBILITY IN MILES
WCI - WIND CHILL INDEX
HX  - HEAT INDEX

$$




USA.gov is the U.S. government's official web portal to all federal, state and local government web resources and services.